Tracking 34717 objects as of 14-Jul-2026
HD Live streaming from Space Station
objects crossing your sky now

CZ-4 DEB

Track CZ-4 DEB now!
10-day predictions


NORAD ID: 20895
Int'l Code: 1990-081BF
Perigee: 680.8 km
Apogee: 711.9 km
Inclination: 98.3 °
Period: 98.5 minutes
Semi major axis: 7067 km
RCS: 0.0195 m2 (small)
Launch date: September 3, 1990
Source: People's Republic of China (PRC)
Launch site: Taiyaun Space Center, China (TSC)

Note: This is SATELLITE DEBRIS
Your satellite tracking list
Your tracking list is empty




NASA's NSSDC Master Catalog

Two Line Element Set (TLE):
1 20895U 90081BF  26194.71077057  .00001106  00000-0  23353-3 0  9995
2 20895  98.3067 244.7913 0021995  83.7376  43.5569 14.61227918868802
Source of the keplerian elements: AFSPC